Zurück zum Katalog

STARLINK-5441

AktivKommunikationVLEO
NORAD 54787·PAYLOAD·🇺🇸 United States

Gestartet Dec 17, 2022 von Cape Canaveral Space Force Station

Loading…

Nächste Überflüge (nächste 24 Stunden)

TLE

AktuellSource: CelesTrak SupGP

Epoche: Sep 14, 2026, 22:21 UTC

1 54787C 22175AF  26257.93173611  .00047309  00000+0  13978-2 0  2570
2 54787  53.1599 263.9148 0001229  85.4210 192.1754 15.34365200    11

Verfolge STARLINK-5441 in Echtzeit mit AllMySat

Download on the App Store